Volver al catálogo

MINOTAUR 4 DEB

ActivoVLEO
NORAD 52037·DEBRIS·🇺🇸 United States

Lanzado Jul 15, 2020 desde Wallops Flight Facility

Loading…

Próximos Pases (próximas 24 horas)

TLE

ActualizadoSource: Space-Track

Época: Sep 14, 2026, 06:23 UTC

1 52037U 20046AB  26257.26626509  .00000787  00000-0  74987-4 0  9998
2 52037  53.9781 211.8992 0006685 216.6031 143.4513 15.04581450255284

Sigue MINOTAUR 4 DEB en tiempo real con AllMySat

Download on the App Store